Regional Weather Roundup
Issued by NWS State College, PA

Home | Current Version | Previous Version | Text Only | Print | Product List | Glossary Off
Versions: 1 2 3 4 5 6 7 8 9 10 11 12 13 14 15 16 17 18 19 20 21 22 23 24 25 26 27 28 29 30 31 32 33 34 35 36 37 38 39 40 41 42 43 44 45 46 47 48 49 50

000
ASUS41 KCTP 311510
RWRCTP

REGIONAL WEATHER ROUNDUP
NATIONAL WEATHER SERVICE STATE COLLEGE PA
1100 AM EDT FRI JUL 31 2015

Note: "fair" indicates few or no clouds below 12,000 feet with no
significant weather and/or obstructions to visibility.

* = STATION THAT DOES NOT REPORT PRECIPITATION /E.G. RAIN...SNOW...ETC/
    THUNDER OR FOG.

PAZ002>004-007>009-013>016-020>023-029>032-311600-
WESTERN PENNSYLVANIA

CITY           SKY/WX    TMP DP  RH WIND       PRES   REMARKS
ERIE           MOSUNNY   78  66  66 SW10G23   29.93S
MEADVILLE      SUNNY     79  59  50 SW8       29.98S
FRANKLIN*      SUNNY     79  61  53 S8        30.00S
NEW CASTLE     FAIR      83  61  47 W8        29.99F
BEAVER COUNTY  SUNNY     79  61  53 W8        30.00F
BUTLER*        SUNNY     79  61  53 W9        30.02S
PITTSBURGH INT SUNNY     80  57  45 W10       30.00F
PITTSBURGH     SUNNY     79  53  40 VRB7      30.00F
INDIANA*       SUNNY     75  63  64 W7        30.04S
LATROBE        SUNNY     77  61  57 SW7       30.02F
WASHINGTON CO* NOT AVBL
$$

PAZ004>006-010>012-017>019-024>028-033>037-041-042-045-046-049>053-311600-
CENTRAL PENNSYLVANIA

CITY           SKY/WX    TMP DP  RH WIND       PRES   REMARKS
BRADFORD       SUNNY     75  58  55 SW12      29.99F
DUBOIS         SUNNY     76  60  57 SW8       30.00S
CLEARFIELD     MOSUNNY   79  58  48 VRB7      29.99F
JOHNSTOWN      SUNNY     73  57  57 NW9       30.05R
ALTOONA        SUNNY     78  60  53 NW8       30.01S
STATE COLLEGE  MOSUNNY   77  63  61 CALM      29.98S
WILLIAMSPORT   SUNNY     79  60  52 W8        29.93S
SELINSGROVE    SUNNY     81  62  52 CALM      29.95S
FT INDIANTOWN  SUNNY     82  61  49 VRB3      29.94S
CAPITAL CITY   SUNNY     83  58  42 N6        29.94S
HARRISBURG     SUNNY     82  62  50 W9        29.93S
YORK           SUNNY     81  64  56 NW6       29.95S
$$

PAZ038>040-043-044-047-048-054-055-060>062-067>071-311600-
EASTERN PENNSYLVANIA

CITY           SKY/WX    TMP DP  RH WIND       PRES   REMARKS
SCRANTON       SUNNY     79  58  48 VRB5      29.94S
MOUNT POCONO   SUNNY     75  56  51 NW8       29.97S
ALLENTOWN      SUNNY     81  62  52 N3        29.92S
QUAKERTOWN*    SUNNY     81  63  54 W5        29.94S
READING        SUNNY     82  63  52 W6        29.92S
LANCASTER      SUNNY     80  61  52 W7        29.94S
COATESVILLE    SUNNY     77  64  65 NW12      29.96S
POTTSTOWN      SUNNY     80  66  62 VRB5      29.94S
BLUE BELL      SUNNY     82  64  54 NW3       29.92S
DOYLESTOWN     SUNNY     81  60  48 NW7       29.92R
WILLOW GROVE   NOT AVBL
NORTH PHILA    SUNNY     86  58  38 NW9       29.92S
PHILADELPHIA   SUNNY     85  60  42 NW8       29.91S
$$



USA.gov is the U.S. government's official web portal to all federal, state and local government web resources and services.